This is the latest recevied weather packets stored in our database for station/object N4CRH-13. If no packets are shown the sender has not sent any weather packets the latest 10 day(s).
| Time | Temp. | Humidity | Pressure | Rain* | Wind** | Luminosity | Snow |
|---|---|---|---|---|---|---|---|
| 1777778467 | 11.67° C | 27% | 1296.9 hPa | 0 mm | - | 0 W/m² | - |
| 1777778164 | 11.67° C | 27% | 1297 hPa | 0 mm | - | 0 W/m² | - |
| 1777777861 | 11.67° C | 27% | 1296.9 hPa | 0 mm | - | 0 W/m² | - |
| 1777777557 | 11.67° C | 27% | 1296.7 hPa | 0 mm | - | 0 W/m² | - |
| 1777777254 | 12.22° C | 26% | 1296.9 hPa | 0 mm | - | 0 W/m² | - |
| 1777776951 | 12.22° C | 26% | 1296.9 hPa | 0 mm | - | 0 W/m² | - |
| 1777776649 | 12.22° C | 26% | 1296.8 hPa | 0 mm | - | 0 W/m² | - |
| 1777776344 | 12.22° C | 26% | 1296.7 hPa | 0 mm | - | 0 W/m² | - |
| 1777776042 | 12.22° C | 26% | 1296.7 hPa | 0 mm | - | 0 W/m² | - |
| 1777775738 | 12.22° C | 26% | 1296.8 hPa | 0 mm | - | 0 W/m² | - |
| 1777775436 | 12.22° C | 27% | 1296.8 hPa | 0 mm | - | 0 W/m² | - |
| 1777775132 | 12.22° C | 27% | 1296.7 hPa | 0 mm | - | 0 W/m² | - |
| 1777774826 | 12.22° C | 26% | 1296.7 hPa | 0 mm | - | 0 W/m² | - |
| 1777774524 | 12.22° C | 28% | 1296.7 hPa | 0 mm | - | 0 W/m² | - |
| 1777774221 | 12.22° C | 28% | 1296.4 hPa | 0 mm | - | 0 W/m² | - |
| 1777768767 | 15.56° C | 26% | 1296 hPa | 0 mm | - | 51 W/m² | - |
| 1777767554 | 16.67° C | 25% | 1296.8 hPa | 0 mm | - | 75 W/m² | - |
| 1777766645 | 16.67° C | 26% | 1296.5 hPa | 0 mm | - | 112 W/m² | - |
| 1777766039 | 16.67° C | 25% | 1296.5 hPa | 0 mm | - | 148 W/m² | - |
| 1777765433 | 17.22° C | 25% | 1296.7 hPa | 0 mm | - | 180 W/m² | - |
| 1777764523 | 16.67° C | 26% | 1296.8 hPa | 0 mm | - | 218 W/m² | - |
| 1777764219 | 16.67° C | 26% | 1296.7 hPa | 0 mm | - | 230 W/m² | - |
| 1777763614 | 17.78° C | 25% | 1296.7 hPa | 0 mm | - | 259 W/m² | - |
| 1777761186 | 18.33° C | 23% | 1297 hPa | 0 mm | - | 371 W/m² | - |
| 1777760580 | 18.33° C | 24% | 1297.1 hPa | 0 mm | - | 398 W/m² | - |
* Rain latest hour (hover to see other rain measurements)
** Current wind speed in m/s (hover to see current wind gust speed)